STARLINK-35886 (66838 NORAD) Tracking and Keplerian Element Data

This shows tracking and keplerian element data for the satellite.

Feedback or suggestion? Click here.




ElementValue
Catalog66838
NameSTARLINK-35886
Epoch Orbit410
Epoch Day354.25003472
Epoch Year2025
RAAN177.8032
Inclination69.9994
Eccentricity0.0002623
Argument of Perigee277.1254
Mean Anonmoly327.9243
Mean Motion15.5263043
Decay Rate-0.00207456
L11 66838U 25280T 25354.25003472 -.00207456 00000+0 -34445-2 0 9997
L22 66838 69.9994 177.8032 0002623 277.1254 327.9243 15.52630430 4102



Live tracking and technical data element details for STARLINK-35886 (NORAD 66838). STARLINK-35886 can be tracked NOW for your location showing map with azimuth and elevation plus other details from your city location.







IsCatalogInMostPopularTable: catalog: 66838, numindb: 10
Update: records affected: 1



GetName: 66838 STARLINK-35886

Hit Count: updated at: Sun, 08 Feb 2026 08:38:40 GMT